COSMOS 1275 DEB, 12737

Orbit data source: Space-Track

COSMOS 1275 DEB, 12737 is space debris in LEO originally from a launch on Thu, 04 Jun 1981 UTC launched from the Plesetsk Missile And Space Complex (PKMTR). Debris objects in space refer to the collection of defunct objects orbiting the Earth. Examples of debris include non-operational satellites, rocket bodies, and fragments generated from explosions, collisions, or faulty payload assembly.

Loading next visibility...
Identifier
12737, 1981-053CE
Orbit
LEO
Country
Flag of CISCIS
Related business
Manufacturer
Unknown
Mission
Spacecraft
Bus & Motor
Unknown
Mass
Unknown
Launch date (UTC)
1981-06-04 (45 years ago)
Launch vehicle
Unknown
Launch site
Plesetsk Missile And Space Complex (PKMTR)
Object type
Payload
Rocket body
Debris
Shape & HBR
Unknown shape, 0.2 m
Radar Cross Section
Small (<0.1 m²)

Expand to show TLE details & history
Last TLE update: 11 hours ago

TLE from 11 hours ago
0 COSMOS 1275 DEB
1 12737U 81053CE  26034.39322066  .00001136  00000-0  11161-2 0  9996
2 12737  82.9833  15.8068 0148430 122.9152  40.0437 13.73257916208399
Epoch: 2026-02-03T09:26Z
TLE epoch observation values (Epoch: 2026-02-03T09:26:14.265Z)
Latitude
15.78864°
Longitude
-81.31136°
Altitude
907.091 km
Speed
7.441 km/s
True Right ascension
12h 55m 17s
True Declination
15° 42' 02"
Sunlit
Object was in full shadow at epoch
Visualization orbit readout
Latitude
Unknown
Longitude
Unknown
Altitude
Unknown
Speed
Unknown
Apparent Right ascension
Unknown
Apparent Declination
Unknown
Sunlit
N/A
Visualization observer readout
Local Sidereal Time
22:36:43
Azimuth
Unknown
Elevation
Unknown
Doppler factor
Unknown
Orbital elements
Apogee altitude
1,094.338 km
Perigee altitude
875.755 km
Semi-major axis
7,363.184 km
Eccentricity
0.01484
Inclination
82.9833°
RAAN
15.8068°
Arg. of periapsis
122.9152°
True anomaly
41.15369°
Mean anomaly
40.0437°
Eccentric anomaly
40.59711°
Mean motion
3.43514 °/min
Orbital period
104.8 mins
BSTAR
0.0011161
Loading maneuver chart data...
Computing Atmospheric mass density...

Documentation

Showing up to 5 results
|